Location: Flitcham
(52.8000°N, 0.5667°E)
Time: 22:12:44
(UTC+00:00)

Cosmos 2297 Rocket - Pass Details

Date: 15 May 2026
Orbit: 838 x 842 km, 71.0° (Epoch: 10 June)

Event Time Altitude Azimuth Distance (km) Brightness Sun altitude
Exits shadow 23:28:03 31° 165° (SSE) 1,439 2.8 -17.9°
Maximum altitude 23:30:21 48° 112° (ESE) 1,092 2.6 -18.0°
Drops below altitude 10° 23:35:45 10° 39° (NE) 2,467 5.3 -18.0°
Sets 23:38:16 0° 34° (NE) 3,406 6.2 -18.1°
